Time,TemperatureF,DewpointF,PressureIn,WindDirection,WindDirectionDegrees,WindSpeedMPH,WindSpeedGustMPH,Humidity,HourlyPrecipIn,Conditions,Clouds,dailyrainin,SoftwareType,DateUTC
2017-08-23 00:02:00,72.4,64.0,30.14,NNE,23,4.7,4.9,75,0.00,,,0.00,WUHU216HW,2017-08-23 05:02:00,
2017-08-23 00:07:00,72.2,63.6,30.14,North,0,1.8,4.9,74,0.01,,,0.01,WUHU216HW,2017-08-23 05:07:00,
2017-08-23 00:12:00,72.0,62.9,30.14,SW,225,1.1,4.0,73,0.01,,,0.01,WUHU216HW,2017-08-23 05:12:00,
2017-08-23 00:17:00,72.0,63.3,30.14,NNW,338,0.2,4.0,74,0.01,,,0.01,WUHU216HW,2017-08-23 05:17:00,
2017-08-23 00:22:00,72.0,63.3,30.14,North,0,0.4,3.6,74,0.01,,,0.01,WUHU216HW,2017-08-23 05:22:00,
2017-08-23 00:27:00,71.8,63.1,30.14,East,90,1.1,3.6,74,0.01,,,0.01,WUHU216HW,2017-08-23 05:27:00,
2017-08-23 00:29:00,71.8,63.1,30.15,North,0,0.2,3.6,74,0.01,,,0.01,WUHU216HW,2017-08-23 05:29:00,
2017-08-23 00:34:00,71.6,62.9,30.15,North,0,0.7,2.9,74,0.01,,,0.01,WUHU216HW,2017-08-23 05:34:00,
2017-08-23 00:39:00,71.6,62.9,30.14,NNE,23,2.0,2.9,74,0.01,,,0.01,WUHU216HW,2017-08-23 05:39:00,
2017-08-23 00:44:00,71.5,63.3,30.14,North,0,2.0,2.7,75,0.01,,,0.01,WUHU216HW,2017-08-23 05:44:00,
2017-08-23 00:49:00,71.5,63.1,30.14,NE,45,1.6,2.7,75,0.01,,,0.01,WUHU216HW,2017-08-23 05:49:00,
2017-08-23 00:54:00,71.3,63.1,30.14,North,0,1.8,3.4,75,0.01,,,0.01,WUHU216HW,2017-08-23 05:54:00,
2017-08-23 00:59:00,71.1,62.7,30.14,NNE,23,1.3,4.7,75,0.01,,,0.01,WUHU216HW,2017-08-23 05:59:00,
2017-08-23 01:04:00,71.1,62.7,30.14,NNE,23,3.6,4.7,75,0.01,,,0.01,WUHU216HW,2017-08-23 06:04:00,
2017-08-23 01:09:00,70.9,62.7,30.14,North,0,2.5,3.6,75,0.00,,,0.01,WUHU216HW,2017-08-23 06:09:00,
2017-08-23 01:14:00,70.9,62.6,30.14,NE,45,0.2,3.6,75,0.00,,,0.01,WUHU216HW,2017-08-23 06:14:00,
2017-08-23 01:19:00,70.7,62.4,30.14,NE,45,2.0,3.6,75,0.00,,,0.01,WUHU216HW,2017-08-23 06:19:00,
2017-08-23 01:24:00,70.6,62.2,30.14,North,0,1.1,3.6,75,0.00,,,0.01,WUHU216HW,2017-08-23 06:24:00,
2017-08-23 01:29:00,70.6,62.2,30.14,NNE,23,1.1,3.4,75,0.00,,,0.01,WUHU216HW,2017-08-23 06:29:00,
2017-08-23 01:34:00,70.4,62.2,30.14,NNE,23,0.4,3.1,75,0.00,,,0.01,WUHU216HW,2017-08-23 06:34:00,
2017-08-23 01:39:00,70.4,62.2,30.14,NNW,338,1.6,2.5,75,0.00,,,0.01,WUHU216HW,2017-08-23 06:39:00,
2017-08-23 01:44:00,70.2,61.8,30.14,North,0,0.7,2.5,75,0.00,,,0.01,WUHU216HW,2017-08-23 06:44:00,
2017-08-23 01:49:00,70.2,62.0,30.14,North,0,0.7,3.4,75,0.00,,,0.01,WUHU216HW,2017-08-23 06:49:00,
2017-08-23 01:54:00,69.8,61.5,30.14,NNE,23,1.8,3.4,75,0.00,,,0.01,WUHU216HW,2017-08-23 06:54:00,
2017-08-23 01:59:00,69.8,61.7,30.14,NNW,338,0.9,2.5,75,0.00,,,0.01,WUHU216HW,2017-08-23 06:59:00,
2017-08-23 02:04:00,69.7,61.6,30.14,North,0,0.4,2.5,75,0.00,,,0.01,WUHU216HW,2017-08-23 07:04:00,
2017-08-23 02:09:00,69.5,61.1,30.14,North,0,1.6,2.9,75,0.00,,,0.01,WUHU216HW,2017-08-23 07:09:00,
2017-08-23 02:14:00,69.5,61.1,30.14,NE,45,0.7,2.9,75,0.00,,,0.01,WUHU216HW,2017-08-23 07:14:00,
2017-08-23 02:19:00,69.3,61.0,30.14,North,0,0.2,3.4,75,0.00,,,0.01,WUHU216HW,2017-08-23 07:19:00,
2017-08-23 02:24:00,69.1,61.2,30.14,North,0,1.1,3.4,76,0.00,,,0.01,WUHU216HW,2017-08-23 07:24:00,
2017-08-23 02:29:00,69.1,60.9,30.14,NNE,23,0.7,3.4,75,0.00,,,0.01,WUHU216HW,2017-08-23 07:29:00,
2017-08-23 02:34:00,68.9,61.0,30.14,North,0,1.1,3.4,76,0.00,,,0.01,WUHU216HW,2017-08-23 07:34:00,
2017-08-23 02:39:00,68.8,61.0,30.14,NNE,23,0.4,1.8,76,0.00,,,0.01,WUHU216HW,2017-08-23 07:39:00,
2017-08-23 02:44:00,68.8,60.8,30.14,North,0,0.4,2.5,76,0.00,,,0.01,WUHU216HW,2017-08-23 07:44:00,
2017-08-23 02:49:00,68.8,61.0,30.14,North,0,0.9,2.7,76,0.00,,,0.01,WUHU216HW,2017-08-23 07:49:00,
2017-08-23 02:54:00,68.6,60.3,30.14,NNE,23,0.4,2.7,75,0.00,,,0.01,WUHU216HW,2017-08-23 07:54:00,
2017-08-23 02:59:00,68.4,60.6,30.14,North,0,1.6,2.2,76,0.00,,,0.01,WUHU216HW,2017-08-23 07:59:00,
2017-08-23 03:04:00,68.2,60.5,30.14,North,0,0.7,2.7,76,0.00,,,0.01,WUHU216HW,2017-08-23 08:04:00,
2017-08-23 03:09:00,68.0,60.2,30.14,NNE,23,1.6,2.7,76,0.00,,,0.01,WUHU216HW,2017-08-23 08:09:00,
2017-08-23 03:14:00,68.0,60.2,30.14,NNE,23,1.3,4.0,76,0.00,,,0.01,WUHU216HW,2017-08-23 08:14:00,
2017-08-23 03:19:00,67.9,59.7,30.14,North,0,1.1,4.0,75,0.00,,,0.01,WUHU216HW,2017-08-23 08:19:00,
2017-08-23 03:24:00,67.7,59.5,30.14,NNE,23,1.3,4.0,75,0.00,,,0.01,WUHU216HW,2017-08-23 08:24:00,
2017-08-23 03:29:00,67.7,59.5,30.14,North,0,2.0,4.0,75,0.00,,,0.01,WUHU216HW,2017-08-23 08:29:00,
2017-08-23 03:34:00,67.7,59.6,30.14,ESE,113,0.9,3.8,75,0.00,,,0.01,WUHU216HW,2017-08-23 08:34:00,
2017-08-23 03:39:00,67.5,59.0,30.14,North,0,2.9,3.8,74,0.00,,,0.01,WUHU216HW,2017-08-23 08:39:00,
2017-08-23 03:44:00,67.3,58.8,30.14,NNE,23,1.3,3.4,74,0.00,,,0.01,WUHU216HW,2017-08-23 08:44:00,
2017-08-23 03:49:00,67.3,58.9,30.13,NNE,23,1.1,2.9,74,0.00,,,0.01,WUHU216HW,2017-08-23 08:49:00,
2017-08-23 03:54:00,67.1,58.6,30.14,North,0,2.2,2.9,74,0.00,,,0.01,WUHU216HW,2017-08-23 08:54:00,
2017-08-23 03:59:00,67.1,58.6,30.14,NNE,23,1.1,3.4,74,0.00,,,0.01,WUHU216HW,2017-08-23 08:59:00,
2017-08-23 04:04:00,67.0,58.4,30.14,NNE,23,2.5,3.6,74,0.00,,,0.01,WUHU216HW,2017-08-23 09:04:00,
2017-08-23 04:09:00,66.8,58.2,30.14,NNE,23,1.3,3.6,74,0.00,,,0.01,WUHU216HW,2017-08-23 09:09:00,
2017-08-23 04:14:00,66.8,58.2,30.14,NNE,23,2.5,3.6,74,0.00,,,0.01,WUHU216HW,2017-08-23 09:14:00,
2017-08-23 04:19:00,66.6,58.1,30.14,North,0,2.7,4.9,74,0.00,,,0.01,WUHU216HW,2017-08-23 09:19:00,
2017-08-23 04:24:00,66.6,58.2,30.14,North,0,1.8,5.4,74,0.00,,,0.01,WUHU216HW,2017-08-23 09:24:00,
2017-08-23 04:29:00,66.6,58.1,30.14,NNE,23,0.9,5.4,74,0.00,,,0.01,WUHU216HW,2017-08-23 09:29:00,
2017-08-23 04:35:00,66.4,57.9,30.14,North,0,0.9,2.9,74,0.00,,,0.01,WUHU216HW,2017-08-23 09:35:00,
2017-08-23 04:40:00,66.4,57.9,30.14,NNW,338,3.6,3.6,74,0.00,,,0.01,WUHU216HW,2017-08-23 09:40:00,
2017-08-23 04:45:00,66.2,57.7,30.14,North,0,1.6,3.6,74,0.00,,,0.01,WUHU216HW,2017-08-23 09:45:00,
2017-08-23 04:50:00,66.2,57.7,30.14,NNE,23,1.1,3.6,74,0.00,,,0.01,WUHU216HW,2017-08-23 09:50:00,
2017-08-23 04:55:00,66.1,57.7,30.14,North,0,0.9,2.2,74,0.00,,,0.01,WUHU216HW,2017-08-23 09:55:00,
2017-08-23 05:00:00,65.9,57.3,30.13,NNE,23,0.0,2.7,74,0.00,,,0.01,WUHU216HW,2017-08-23 10:00:00,
2017-08-23 05:01:00,65.9,57.3,30.14,NNE,23,0.7,2.7,74,0.00,,,0.01,WUHU216HW,2017-08-23 10:01:00,
2017-08-23 05:06:00,65.9,57.3,30.13,ENE,68,1.1,3.6,74,0.00,,,0.01,WUHU216HW,2017-08-23 10:06:00,
2017-08-23 05:11:00,65.9,57.5,30.13,NNE,23,0.7,3.6,74,0.00,,,0.01,WUHU216HW,2017-08-23 10:11:00,
2017-08-23 05:16:00,65.7,57.3,30.13,NNE,23,0.0,2.0,74,0.00,,,0.01,WUHU216HW,2017-08-23 10:16:00,
2017-08-23 05:21:00,65.5,57.0,30.14,NNE,23,0.7,1.1,74,0.00,,,0.01,WUHU216HW,2017-08-23 10:21:00,
2017-08-23 05:26:00,65.5,57.1,30.14,North,0,0.7,1.8,74,0.00,,,0.01,WUHU216HW,2017-08-23 10:26:00,
2017-08-23 05:31:00,65.3,56.8,30.14,NE,45,0.4,1.8,74,0.00,,,0.01,WUHU216HW,2017-08-23 10:31:00,
2017-08-23 05:36:00,65.2,56.8,30.14,ENE,68,0.9,1.1,74,0.00,,,0.01,WUHU216HW,2017-08-23 10:36:00,
2017-08-23 05:41:00,65.2,56.8,30.14,ENE,68,0.0,1.1,74,0.00,,,0.01,WUHU216HW,2017-08-23 10:41:00,
2017-08-23 05:46:00,65.0,56.5,30.14,ENE,68,0.2,1.1,74,0.00,,,0.01,WUHU216HW,2017-08-23 10:46:00,
2017-08-23 05:51:00,64.8,56.4,30.14,North,0,0.2,1.3,74,0.00,,,0.01,WUHU216HW,2017-08-23 10:51:00,
2017-08-23 05:56:00,64.6,56.5,30.14,North,0,0.4,2.5,75,0.00,,,0.01,WUHU216HW,2017-08-23 10:56:00,
2017-08-23 06:01:00,64.4,56.3,30.14,North,0,0.0,2.5,75,0.00,,,0.01,WUHU216HW,2017-08-23 11:01:00,
2017-08-23 06:06:00,64.4,56.4,30.14,NE,45,0.0,1.3,75,0.00,,,0.01,WUHU216HW,2017-08-23 11:06:00,
2017-08-23 06:11:00,64.3,56.7,30.14,NE,45,0.0,0.4,76,0.00,,,0.01,WUHU216HW,2017-08-23 11:11:00,
2017-08-23 06:16:00,64.1,56.3,30.15,NNE,23,0.2,1.1,76,0.00,,,0.01,WUHU216HW,2017-08-23 11:16:00,
2017-08-23 06:21:00,64.1,56.5,30.15,NNE,23,0.0,1.1,76,0.00,,,0.01,WUHU216HW,2017-08-23 11:21:00,
2017-08-23 06:26:00,63.9,56.2,30.15,NNE,23,0.4,1.8,76,0.00,,,0.01,WUHU216HW,2017-08-23 11:26:00,
2017-08-23 06:31:00,63.7,56.3,30.15,NNE,23,0.0,1.8,77,0.00,,,0.01,WUHU216HW,2017-08-23 11:31:00,
2017-08-23 06:36:00,63.7,56.3,30.15,NNE,23,0.4,0.7,77,0.00,,,0.01,WUHU216HW,2017-08-23 11:36:00,
2017-08-23 06:41:00,63.5,56.2,30.15,NNE,23,1.3,1.3,77,0.00,,,0.01,WUHU216HW,2017-08-23 11:41:00,
2017-08-23 06:46:00,63.4,55.6,30.15,North,0,0.0,2.7,76,0.00,,,0.01,WUHU216HW,2017-08-23 11:46:00,
2017-08-23 06:51:00,63.2,55.4,30.15,North,0,0.4,2.7,76,0.00,,,0.01,WUHU216HW,2017-08-23 11:51:00,
2017-08-23 06:56:00,63.2,55.4,30.15,NNE,23,0.4,2.9,76,0.00,,,0.01,WUHU216HW,2017-08-23 11:56:00,
2017-08-23 07:01:00,63.2,55.4,30.16,NNE,23,0.0,2.9,76,0.00,,,0.01,WUHU216HW,2017-08-23 12:01:00,
2017-08-23 07:06:00,63.2,55.6,30.15,NE,45,0.2,2.0,76,0.00,,,0.01,WUHU216HW,2017-08-23 12:06:00,
2017-08-23 07:11:00,63.0,55.4,30.16,North,0,0.9,2.0,76,0.00,,,0.01,WUHU216HW,2017-08-23 12:11:00,
2017-08-23 07:16:00,63.2,55.4,30.16,NNE,23,1.3,2.5,76,0.00,,,0.01,WUHU216HW,2017-08-23 12:16:00,
2017-08-23 07:21:00,63.4,55.8,30.16,NNE,23,0.9,3.6,76,0.00,,,0.01,WUHU216HW,2017-08-23 12:21:00,
2017-08-23 07:26:00,63.4,55.6,30.16,North,0,0.4,3.6,76,0.00,,,0.01,WUHU216HW,2017-08-23 12:26:00,
2017-08-23 07:31:00,63.5,55.8,30.16,NNE,23,2.7,3.4,76,0.00,,,0.01,WUHU216HW,2017-08-23 12:31:00,
2017-08-23 07:36:00,63.5,55.8,30.16,NNE,23,0.4,3.4,76,0.00,,,0.01,WUHU216HW,2017-08-23 12:36:00,
2017-08-23 07:41:00,63.9,56.2,30.16,North,0,0.4,2.7,76,0.00,,,0.01,WUHU216HW,2017-08-23 12:41:00,
2017-08-23 07:46:00,64.1,56.3,30.16,NNE,23,0.9,2.0,76,0.00,,,0.01,WUHU216HW,2017-08-23 12:46:00,
2017-08-23 07:51:00,64.4,56.4,30.16,North,0,2.9,2.9,75,0.00,,,0.01,WUHU216HW,2017-08-23 12:51:00,
2017-08-23 07:56:00,64.6,56.5,30.02,North,0,1.8,2.9,75,0.00,,,0.01,WUHU216HW,2017-08-23 12:56:00,
2017-08-23 08:01:00,65.0,56.5,30.02,NE,45,0.4,2.5,74,0.00,,,0.01,WUHU216HW,2017-08-23 13:01:00,
2017-08-23 08:06:00,65.2,56.3,30.16,East,90,0.7,2.7,73,0.00,,,0.01,WUHU216HW,2017-08-23 13:06:00,
2017-08-23 08:11:00,65.3,56.4,30.02,East,90,1.1,2.7,73,0.00,,,0.01,WUHU216HW,2017-08-23 13:11:00,
2017-08-23 08:16:00,65.5,56.6,30.02,North,0,0.4,1.8,73,0.00,,,0.01,WUHU216HW,2017-08-23 13:16:00,
2017-08-23 08:21:00,65.5,57.0,30.03,NNE,23,0.0,1.8,74,0.00,,,0.01,WUHU216HW,2017-08-23 13:21:00,
2017-08-23 08:26:00,65.9,57.3,30.03,North,0,2.2,2.2,74,0.00,,,0.01,WUHU216HW,2017-08-23 13:26:00,
2017-08-23 08:31:00,66.2,57.3,30.03,ENE,68,0.9,2.2,73,0.00,,,0.01,WUHU216HW,2017-08-23 13:31:00,
2017-08-23 08:36:00,66.2,57.3,30.03,North,0,0.7,2.0,73,0.00,,,0.01,WUHU216HW,2017-08-23 13:36:00,
2017-08-23 08:41:00,66.4,57.6,30.03,ENE,68,0.7,1.8,73,0.00,,,0.01,WUHU216HW,2017-08-23 13:41:00,
2017-08-23 08:46:00,66.8,57.9,30.03,NNE,23,0.2,1.1,73,0.00,,,0.01,WUHU216HW,2017-08-23 13:46:00,
2017-08-23 08:47:00,66.8,57.9,30.03,NNE,23,0.2,1.1,73,0.00,,,0.01,WUHU216HW,2017-08-23 13:47:00,
2017-08-23 08:52:00,67.0,57.6,30.03,NNE,23,0.2,1.1,72,0.00,,,0.01,WUHU216HW,2017-08-23 13:52:00,
2017-08-23 08:57:00,67.3,57.6,30.03,North,0,0.4,1.3,71,0.00,,,0.01,WUHU216HW,2017-08-23 13:57:00,
2017-08-23 09:02:00,67.3,57.6,30.03,NE,45,0.7,1.6,71,0.00,,,0.01,WUHU216HW,2017-08-23 14:02:00,
2017-08-23 09:07:00,67.7,57.6,30.03,East,90,0.7,2.5,70,0.00,,,0.01,WUHU216HW,2017-08-23 14:07:00,
2017-08-23 09:12:00,67.9,57.8,30.03,NNE,23,0.7,2.5,70,0.00,,,0.01,WUHU216HW,2017-08-23 14:12:00,
2017-08-23 09:17:00,68.0,58.0,30.02,North,0,0.7,2.5,70,0.00,,,0.01,WUHU216HW,2017-08-23 14:17:00,
2017-08-23 09:22:00,68.4,57.9,30.02,NE,45,0.4,1.3,69,0.00,,,0.01,WUHU216HW,2017-08-23 14:22:00,
2017-08-23 09:27:00,68.6,58.2,30.03,North,0,1.3,1.3,69,0.00,,,0.01,WUHU216HW,2017-08-23 14:27:00,
2017-08-23 09:32:00,68.8,58.1,30.02,NNW,338,1.1,1.8,69,0.00,,,0.01,WUHU216HW,2017-08-23 14:32:00,
2017-08-23 09:37:00,68.9,58.0,30.02,NNE,23,1.3,4.3,68,0.00,,,0.01,WUHU216HW,2017-08-23 14:37:00,
2017-08-23 09:42:00,69.3,58.5,30.02,East,90,0.7,4.3,68,0.00,,,0.01,WUHU216HW,2017-08-23 14:42:00,
2017-08-23 09:47:00,69.7,58.1,30.03,NNW,338,2.5,2.5,67,0.00,,,0.01,WUHU216HW,2017-08-23 14:47:00,
2017-08-23 09:52:00,69.8,58.8,30.03,North,0,1.8,2.5,68,0.00,,,0.01,WUHU216HW,2017-08-23 14:52:00,
2017-08-23 09:57:00,70.2,58.7,30.03,NNW,338,1.8,1.8,67,0.00,,,0.01,WUHU216HW,2017-08-23 14:57:00,
2017-08-23 10:02:00,70.2,57.9,30.03,NNW,338,2.2,6.0,65,0.00,,,0.01,WUHU216HW,2017-08-23 15:02:00,
2017-08-23 10:07:00,70.4,58.1,30.03,ENE,68,1.8,6.0,65,0.00,,,0.01,WUHU216HW,2017-08-23 15:07:00,
2017-08-23 10:12:00,70.6,58.2,30.03,North,0,5.4,5.4,65,0.00,,,0.01,WUHU216HW,2017-08-23 15:12:00,
2017-08-23 10:17:00,70.9,58.7,30.03,NNE,23,2.2,5.4,65,0.00,,,0.01,WUHU216HW,2017-08-23 15:17:00,
2017-08-23 10:22:00,70.9,58.2,30.03,NNE,23,1.8,5.1,64,0.00,,,0.01,WUHU216HW,2017-08-23 15:22:00,
2017-08-23 10:27:00,71.3,58.4,30.03,ESE,113,0.7,5.1,64,0.00,,,0.01,WUHU216HW,2017-08-23 15:27:00,
2017-08-23 10:32:00,71.6,59.2,30.03,NE,45,0.2,2.9,65,0.00,,,0.01,WUHU216HW,2017-08-23 15:32:00,
2017-08-23 10:37:00,72.0,58.7,30.03,NNE,23,1.8,3.1,63,0.00,,,0.01,WUHU216HW,2017-08-23 15:37:00,
2017-08-23 10:38:00,72.2,58.4,30.03,North,0,0.7,3.1,62,0.00,,,0.01,WUHU216HW,2017-08-23 15:38:00,
2017-08-23 10:48:00,72.4,59.1,30.03,North,0,0.2,4.3,63,0.00,,,0.01,WUHU216HW,2017-08-23 15:48:00,
2017-08-23 10:53:00,72.7,59.0,30.03,North,0,6.0,6.0,62,0.00,,,0.01,WUHU216HW,2017-08-23 15:53:00,
2017-08-23 10:58:00,72.7,58.7,30.03,NE,45,3.4,6.0,61,0.00,,,0.01,WUHU216HW,2017-08-23 15:58:00,
2017-08-23 11:03:00,72.7,59.0,30.03,NNE,23,0.7,6.0,62,0.00,,,0.01,WUHU216HW,2017-08-23 16:03:00,
2017-08-23 11:08:00,72.9,58.4,30.03,SSE,158,0.4,3.8,60,0.00,,,0.01,WUHU216HW,2017-08-23 16:08:00,
2017-08-23 11:13:00,73.3,59.0,30.03,North,0,0.9,3.8,61,0.00,,,0.01,WUHU216HW,2017-08-23 16:13:00,
2017-08-23 11:18:00,73.6,58.9,30.03,NNW,338,0.9,5.4,60,0.00,,,0.01,WUHU216HW,2017-08-23 16:18:00,
2017-08-23 11:23:00,73.8,59.2,30.03,NNE,23,5.4,5.4,60,0.00,,,0.01,WUHU216HW,2017-08-23 16:23:00,
2017-08-23 11:28:00,73.8,58.8,30.03,North,0,2.5,5.4,59,0.00,,,0.01,WUHU216HW,2017-08-23 16:28:00,
2017-08-23 11:33:00,74.0,59.0,30.03,NNE,23,4.3,5.4,59,0.00,,,0.01,WUHU216HW,2017-08-23 16:33:00,
2017-08-23 11:38:00,74.2,59.1,30.03,WSW,248,0.2,4.3,59,0.00,,,0.01,WUHU216HW,2017-08-23 16:38:00,
2017-08-23 11:43:00,74.5,59.9,30.05,ESE,113,0.4,1.8,60,0.00,,,0.01,WUHU216HW,2017-08-23 16:43:00,
2017-08-23 11:48:00,75.1,60.3,30.16,NNW,338,1.1,2.0,60,0.00,,,0.01,WUHU216HW,2017-08-23 16:48:00,
2017-08-23 11:58:00,75.2,59.5,30.16,SE,135,1.1,4.9,58,0.00,,,0.01,WUHU216HW,2017-08-23 16:58:00,
2017-08-23 12:03:00,75.2,57.4,30.01,SE,135,1.3,2.9,54,0.00,,,0.01,WUHU216HW,2017-08-23 17:03:00,
2017-08-23 12:08:00,75.2,59.0,30.16,NE,45,1.1,2.9,57,0.00,,,0.01,WUHU216HW,2017-08-23 17:08:00,
2017-08-23 12:13:00,75.4,59.1,30.16,NW,315,0.4,2.0,57,0.00,,,0.01,WUHU216HW,2017-08-23 17:13:00,
2017-08-23 12:18:00,76.0,60.1,30.01,North,0,0.9,1.8,58,0.00,,,0.01,WUHU216HW,2017-08-23 17:18:00,
2017-08-23 12:23:00,76.1,59.3,30.01,NNW,338,1.6,2.5,56,0.00,,,0.01,WUHU216HW,2017-08-23 17:23:00,
2017-08-23 12:28:00,76.1,59.3,30.15,SSE,158,0.4,2.5,56,0.00,,,0.01,WUHU216HW,2017-08-23 17:28:00,
2017-08-23 12:33:00,76.3,60.1,30.13,NE,45,1.1,3.4,57,0.00,,,0.01,WUHU216HW,2017-08-23 17:33:00,
2017-08-23 12:38:00,76.3,59.4,30.15,North,0,3.8,3.8,56,0.00,,,0.01,WUHU216HW,2017-08-23 17:38:00,
2017-08-23 12:43:00,76.5,58.8,30.14,NNE,23,2.5,3.8,54,0.00,,,0.01,WUHU216HW,2017-08-23 17:43:00,
2017-08-23 12:48:00,76.3,58.4,30.15,NNW,338,1.8,4.5,54,0.00,,,0.01,WUHU216HW,2017-08-23 17:48:00,
2017-08-23 12:53:00,76.5,59.1,30.14,NNW,338,0.7,4.5,55,0.00,,,0.01,WUHU216HW,2017-08-23 17:53:00,
2017-08-23 12:58:00,76.7,58.8,30.14,NNE,23,1.1,3.4,54,0.00,,,0.01,WUHU216HW,2017-08-23 17:58:00,
2017-08-23 13:03:00,76.7,59.0,30.14,ESE,113,0.4,4.3,54,0.00,,,0.01,WUHU216HW,2017-08-23 18:03:00,
2017-08-23 13:08:00,76.9,58.6,30.14,North,0,1.3,4.3,53,0.00,,,0.01,WUHU216HW,2017-08-23 18:08:00,
2017-08-23 13:13:00,77.0,59.6,30.14,North,0,1.1,3.8,55,0.00,,,0.01,WUHU216HW,2017-08-23 18:13:00,
2017-08-23 13:18:00,76.7,59.5,30.14,SSE,158,0.4,2.0,55,0.00,,,0.01,WUHU216HW,2017-08-23 18:18:00,
2017-08-23 13:23:00,77.0,59.0,30.13,SE,135,0.4,1.1,54,0.00,,,0.01,WUHU216HW,2017-08-23 18:23:00,